Flag for Germany Weather past 2 weeks in Ingelheim am Rhein, Rhineland-Palatinate, Germany

Now
53 °F

Overcast.


Feels Like: 49 °F
Forecast: 40 / 45 °F
Wind: 12 mph from Southwest

Location: Wiesbaden Airport

Current Time: Dec 19, 2014 at 4:59:17 AM

Latest Report: Dec 19, 2014 at 3:58 AM


Visibility: N/A

Pressure: 30.03 "Hg

Humidity: 80%

Dew point: 47 °F

Location of Ingelheim am RheinLocation

Historic Weather in Ingelheim am Rhein — Graph

°F

Ingelheim am Rhein temperature yesterday

Maximum temperature yesterday: 55 °F (at 9:01 PM)
Minimum temperature yesterday: 44 °F (at 1:58 AM)
Average temperature yesterday: 49 °F

Past Weeks' High & Low Weather Summary

 TemperatureHumidityPressure
High55 °F (Dec 18, 9:01 PM)100% (Dec 6, 4:58 AM)30.46 "Hg (Dec 6, 4:58 AM)
Low31 °F (Dec 8, 9:58 PM)70% (Dec 9, 1:00 PM)29.62 "Hg (Dec 12, 6:58 PM)
Average40 °F92%30.03 "Hg
* Reported Dec 4 2:58 AM — Dec 19 2:58 AM, Ingelheim am Rhein, Weather by CustomWeather, © 2014

Note: Actual official high and low records may vary slightly from our data, if they occured in-between our weather recording intervals... More about our weather records

Advertising

Ingelheim am Rhein weather history for previous 24 hours

 ConditionsComfort  
Time TempWeatherWind HumidityBarometerVisibility
2:58 AM
Dec 19
53 °FOvercast.14 mph79%30.05 "HgN/A
1:58 AM54 °FOvercast.16 mph77%30.04 "HgN/A
12:58 AM53 °FPartly cloudy.22 mph84%30.03 "HgN/A
11:58 PM
Dec 18
54 °FMostly cloudy.23 mph82%30.02 "HgN/A
10:58 PM54 °FOvercast.15 mph82%30.02 "HgN/A
9:58 PM55 °FMostly cloudy.13 mph77%30.03 "HgN/A
9:01 PM55 °FMostly cloudy.20 mph88%29.98 "HgN/A
8:58 PM55 °FMostly cloudy.21 mph88%29.99 "HgN/A
7:58 PM55 °FOvercast.17 mph93%29.98 "HgN/A
6:58 PM54 °FOvercast.10 mph97%29.97 "HgN/A
5:58 PM52 °FOvercast.8 mph100%29.96 "HgN/A
4:58 PM51 °FLow clouds.7 mph100%29.95 "HgN/A
4:03 PM50 °FOvercast.6 mph100%29.94 "HgN/A
3:58 PM51 °FOvercast.5 mph100%29.95 "HgN/A
2:58 PM50 °FOvercast.No wind100%29.94 "HgN/A
1:58 PM50 °FFog.No wind100%29.93 "Hg6 mi
12:58 PM48 °FDrizzle. Fog.2 mph100%29.94 "Hg2 mi
12:01 PM48 °FLight rain. Fog.No wind100%29.94 "Hg2 mi
10:58 AM46 °FOvercast.3 mph100%29.96 "HgN/A
9:58 AM46 °FLow clouds.3 mph100%29.94 "HgN/A
8:58 AM46 °FFog.3 mph100%29.95 "Hg3 mi
8:00 AM46 °FFog.5 mph100%29.93 "Hg5 mi
7:59 AM46 °FFog.5 mph100%29.93 "Hg5 mi
6:58 AM46 °FFog.6 mph100%29.95 "Hg3 mi
5:58 AM45 °FLow clouds.7 mph100%29.95 "HgN/A
4:58 AM45 °FLow clouds.6 mph100%29.95 "HgN/A
Weather by CustomWeather, © 2014

See weather overviewHow to use our weather pages